This is the latest recevied weather packets stored in our database for station/object KB0Y. If no packets are shown the sender has not sent any weather packets the latest 10 day(s).
| Time | Temp. | Humidity | Pressure | Rain* | Wind** | Luminosity | Snow |
|---|---|---|---|---|---|---|---|
| 1778166237 | 21.67° C | 99% | 1020.6 hPa | 0 mm | - | 190 W/m² | - |
| 1778165933 | 21.67° C | 99% | 1020.6 hPa | 0 mm | - | 228 W/m² | - |
| 1778165629 | 21.67° C | 99% | 1021 hPa | 0 mm | - | 181 W/m² | - |
| 1778165326 | 21.67° C | 99% | 1021 hPa | 0 mm | - | 70 W/m² | - |
| 1778165024 | 21.67° C | 99% | 1021 hPa | 0 mm | - | 58 W/m² | - |
| 1778164720 | 21.67° C | 99% | 1021 hPa | 0 mm | - | 60 W/m² | - |
| 1778164417 | 21.67° C | 99% | 1021 hPa | 0 mm | - | 83 W/m² | - |
| 1778164113 | 21.67° C | 99% | 1021 hPa | 0 mm | - | 67 W/m² | - |
| 1778163810 | 21.67° C | 99% | 1021 hPa | 0 mm | - | 75 W/m² | - |
| 1778163507 | 21.11° C | 99% | 1020.6 hPa | 0 mm | - | 74 W/m² | - |
| 1778163203 | 21.11° C | 99% | 1021 hPa | 0 mm | - | 76 W/m² | - |
| 1778162900 | 21.11° C | 99% | 1020.6 hPa | 0 mm | - | 81 W/m² | - |
| 1778162597 | 21.11° C | 99% | 1020.3 hPa | 0 mm | - | 55 W/m² | - |
| 1778162295 | 21.11° C | 99% | 1020.3 hPa | 0 mm | - | 52 W/m² | - |
| 1778161992 | 21.11° C | 99% | 1020.3 hPa | 0 mm | - | 39 W/m² | - |
| 1778161689 | 21.11° C | 99% | 1020.3 hPa | 0 mm | - | 54 W/m² | - |
| 1778161384 | 21.11° C | 99% | 1020 hPa | 0 mm | - | 52 W/m² | - |
| 1778161080 | 21.11° C | 99% | 1019.6 hPa | 0 mm | - | 57 W/m² | - |
| 1778160776 | 21.11° C | 99% | 1019.3 hPa | 0 mm | - | 60 W/m² | - |
| 1778160475 | 21.11° C | 99% | 1019.6 hPa | 0 mm | - | 45 W/m² | - |
| 1778160171 | 21.11° C | 99% | 1018.9 hPa | 0 mm | - | 44 W/m² | - |
| 1778159868 | 21.11° C | 99% | 1018.9 hPa | 0 mm | - | 48 W/m² | - |
| 1778159565 | 21.11° C | 99% | 1018.9 hPa | 0 mm | - | 48 W/m² | - |
| 1778159262 | 21.11° C | 99% | 1019.3 hPa | 0 mm | - | 53 W/m² | - |
| 1778158959 | 21.11° C | 99% | 1018.9 hPa | 0 mm | - | 56 W/m² | - |
* Rain latest hour (hover to see other rain measurements)
** Current wind speed in m/s (hover to see current wind gust speed)